| time (UTC) | temp F | wind direction | speed MPH | gust MPH | rain 1hr in | rain 24hr in | rain mn in | humidity % | barometer mb |
| 20260906144957 | 49 | 158 | 0.0 | 0.0 | 0.00 | 0.01 | 0.00 | 57 | 999.9 |
| 20260906144457 | 49 | 157 | 0.0 | 0.0 | 0.00 | 0.01 | 0.00 | 57 | 999.9 |
| 20260906143957 | 49 | 158 | 0.0 | 0.0 | 0.00 | 0.01 | 0.00 | 57 | 999.8 |
| 20260906142957 | 49 | 158 | 0.0 | 0.0 | 0.00 | 0.01 | 0.00 | 57 | 999.7 |
| 20260906142457 | 49 | 157 | 0.0 | 0.0 | 0.00 | 0.01 | 0.00 | 57 | 999.8 |
| 20260906141457 | 49 | 157 | 0.0 | 0.0 | 0.00 | 0.01 | 0.00 | 57 | 999.8 |
| 20260906141000 | 49 | 157 | 0.0 | 0.0 | 0.00 | 0.01 | 0.00 | 57 | 999.8 |
| 20260906135958 | 49 | 157 | 0.0 | 0.0 | 0.00 | 0.01 | 0.00 | 57 | 999.6 |
| 20260906135458 | 49 | 157 | 0.0 | 0.0 | 0.00 | 0.01 | 0.00 | 57 | 999.6 |
| 20260906134958 | 49 | 157 | 0.0 | 0.0 | 0.00 | 0.01 | 0.00 | 57 | 999.5 |
| 20260906134458 | 49 | 157 | 0.0 | 0.0 | 0.00 | 0.01 | 0.00 | 57 | 999.5 |
| 20260906133459 | 49 | 158 | 0.0 | 0.0 | 0.00 | 0.01 | 0.00 | 57 | 999.4 |
| 20260906132957 | 49 | 157 | 0.0 | 0.0 | 0.00 | 0.01 | 0.00 | 58 | 999.5 |
| 20260906132459 | 49 | 157 | 0.0 | 0.0 | 0.00 | 0.01 | 0.00 | 58 | 999.4 |
| 20260906131957 | 49 | 158 | 0.0 | 0.0 | 0.00 | 0.01 | 0.00 | 58 | 999.3 |
| 20260906131458 | 49 | 157 | 0.0 | 0.0 | 0.00 | 0.01 | 0.00 | 58 | 999.3 |
| 20260906125958 | 49 | 157 | 0.0 | 0.0 | 0.00 | 0.01 | 0.00 | 58 | 999.3 |
| 20260906125458 | 49 | 158 | 0.0 | 0.0 | 0.00 | 0.01 | 0.00 | 58 | 999.3 |
| 20260906124958 | 49 | 158 | 0.0 | 0.0 | 0.00 | 0.01 | 0.00 | 58 | 999.3 |
| 20260906123958 | 49 | 158 | 0.0 | 0.0 | 0.00 | 0.01 | 0.00 | 58 | 999.5 |
| 20260906123458 | 49 | 158 | 0.0 | 0.0 | 0.00 | 0.01 | 0.00 | 58 | 999.5 |
| 20260906122958 | 49 | 158 | 0.0 | 0.0 | 0.00 | 0.01 | 0.00 | 58 | 999.6 |
| 20260906122458 | 49 | 158 | 0.0 | 0.0 | 0.00 | 0.01 | 0.00 | 58 | 999.5 |
| 20260906121958 | 49 | 157 | 0.0 | 0.0 | 0.00 | 0.01 | 0.00 | 58 | 999.5 |
| 20260906121500 | 49 | 157 | 0.0 | 1.0 | 0.00 | 0.01 | 0.00 | 58 | 999.6 |
| 20260906120459 | 49 | 158 | 0.0 | 0.0 | 0.00 | 0.01 | 0.00 | 58 | 999.6 |
| 20260906115958 | 49 | 157 | 0.0 | 0.0 | 0.00 | 0.01 | 0.00 | 58 | 999.6 |
| 20260906115500 | 49 | 157 | 0.0 | 0.0 | 0.00 | 0.01 | 0.00 | 58 | 999.5 |
| 20260906115003 | 49 | 158 | 0.0 | 0.0 | 0.00 | 0.01 | 0.00 | 59 | 999.7 |
| 20260906114500 | 50 | 157 | 0.0 | 0.0 | 0.00 | 0.01 | 0.00 | 59 | 999.6 |
| 20260906113959 | 50 | 157 | 0.0 | 0.0 | 0.00 | 0.01 | 0.00 | 59 | 999.7 |
| 20260906113459 | 50 | 157 | 0.0 | 0.0 | 0.00 | 0.01 | 0.00 | 59 | 999.7 |
| 20260906112959 | 50 | 158 | 0.0 | 0.0 | 0.00 | 0.01 | 0.00 | 59 | 999.8 |
| 20260906112000 | 50 | 157 | 0.0 | 0.0 | 0.00 | 0.01 | 0.00 | 59 | 999.8 |
| 20260906111459 | 50 | 157 | 0.0 | 0.0 | 0.00 | 0.01 | 0.00 | 59 | 999.8 |
| 20260906110959 | 50 | 157 | 0.0 | 0.0 | 0.00 | 0.01 | 0.00 | 59 | 999.9 |
| 20260906110458 | 50 | 157 | 0.0 | 0.0 | 0.00 | 0.01 | 0.00 | 60 | 999.9 |
| 20260906105958 | 50 | 157 | 0.0 | 0.0 | 0.00 | 0.01 | 0.00 | 59 | 999.9 |
| 20260906105458 | 50 | 158 | 0.0 | 0.0 | 0.00 | 0.01 | 0.00 | 60 | 999.9 |
| 20260906105001 | 50 | 157 | 0.0 | 0.0 | 0.00 | 0.01 | 0.00 | 60 | 1000.0 |
| 20260906104457 | 50 | 158 | 0.0 | 0.0 | 0.00 | 0.01 | 0.00 | 60 | 1000.1 |
| 20260906104001 | 50 | 157 | 0.0 | 0.0 | 0.00 | 0.01 | 0.00 | 60 | 1000.1 |
| 20260906103458 | 50 | 157 | 0.0 | 0.0 | 0.00 | 0.01 | 0.00 | 60 | 1000.2 |
| 20260906102458 | 51 | 157 | 0.0 | 0.0 | 0.00 | 0.01 | 0.00 | 61 | 1000.3 |
| 20260906101959 | 51 | 157 | 0.0 | 0.0 | 0.00 | 0.01 | 0.00 | 61 | 1000.3 |
| 20260906101459 | 51 | 158 | 0.0 | 0.0 | 0.00 | 0.01 | 0.00 | 61 | 1000.4 |
| 20260906100959 | 51 | 157 | 0.0 | 0.0 | 0.00 | 0.01 | 0.00 | 61 | 1000.5 |
| 20260906095507 | 51 | 158 | 0.0 | 0.0 | 0.00 | 0.01 | 0.00 | 62 | 1000.5 |
| 20260906095005 | 51 | 158 | 0.0 | 0.0 | 0.00 | 0.01 | 0.00 | 62 | 1000.5 |
| 20260906094501 | 51 | 157 | 0.0 | 0.0 | 0.00 | 0.01 | 0.00 | 63 | 1000.6 |
| 20260906094007 | 52 | 157 | 0.0 | 0.0 | 0.00 | 0.01 | 0.00 | 63 | 1000.6 |
| 20260906092537 | 52 | 158 | 0.0 | 1.0 | 0.00 | 0.01 | 0.00 | 64 | 1000.8 |
| 20260906091500 | 52 | 157 | 0.0 | 0.0 | 0.00 | 0.01 | 0.00 | 64 | 1000.8 |
| 20260906090958 | 52 | 158 | 0.0 | 0.0 | 0.00 | 0.01 | 0.00 | 65 | 1000.8 |
| 20260906090501 | 53 | 158 | 0.0 | 0.0 | 0.00 | 0.01 | 0.00 | 65 | 1000.8 |
| 20260906090002 | 53 | 158 | 0.0 | 0.0 | 0.00 | 0.01 | 0.00 | 65 | 1000.8 |
| 20260906085459 | 53 | 157 | 0.0 | 0.0 | 0.00 | 0.01 | 0.00 | 65 | 1000.8 |
| 20260906084502 | 53 | 158 | 0.0 | 0.0 | 0.00 | 0.01 | 0.00 | 65 | 1000.7 |
| 20260906082505 | 53 | 157 | 0.0 | 0.0 | 0.00 | 0.01 | 0.00 | 64 | 1000.6 |
| 20260906082005 | 53 | 157 | 0.0 | 0.0 | 0.00 | 0.01 | 0.00 | 64 | 1000.4 |
| 20260906081004 | 53 | 157 | 0.0 | 0.0 | 0.00 | 0.01 | 0.00 | 63 | 1000.2 |
| 20260906080000 | 52 | 157 | 0.0 | 1.0 | 0.00 | 0.01 | 0.00 | 63 | 1000.0 |
| 20260906075502 | 52 | 158 | 0.0 | 1.0 | 0.00 | 0.01 | 0.00 | 63 | 1000.1 |
| 20260906074959 | 52 | 157 | 0.0 | 2.0 | 0.00 | 0.01 | 0.00 | 63 | 999.9 |
| 20260906074501 | 52 | 198 | 0.0 | 4.0 | 0.00 | 0.01 | 0.00 | 63 | 999.9 |
| 20260906074001 | 52 | 192 | 0.0 | 4.0 | 0.00 | 0.01 | 0.00 | 63 | 999.8 |
| 20260906073502 | 52 | 211 | 0.0 | 3.0 | 0.00 | 0.01 | 0.00 | 63 | 999.8 |
| 20260906073001 | 52 | 211 | 0.0 | 0.0 | 0.00 | 0.01 | 0.00 | 63 | 999.7 |
| 20260906072500 | 52 | 211 | 0.0 | 0.0 | 0.00 | 0.01 | 0.00 | 64 | 999.8 |
| 20260906071959 | 52 | 211 | 0.0 | 0.0 | 0.00 | 0.01 | 0.00 | 64 | 1000.0 |
| 20260906070959 | 53 | 211 | 0.0 | 0.0 | 0.00 | 0.01 | 0.00 | 65 | 1000.1 |
| 20260906070459 | 53 | 211 | 0.0 | 0.0 | 0.00 | 0.01 | 0.00 | 65 | 1000.0 |
| 20260906070005 | 53 | 211 | 0.0 | 0.0 | 0.00 | 0.01 | 0.00 | 65 | 999.9 |
| 20260906065500 | 53 | 211 | 0.0 | 0.0 | 0.00 | 0.02 | 0.01 | 65 | 999.8 |
| 20260906065001 | 53 | 211 | 0.0 | 0.0 | 0.00 | 0.02 | 0.01 | 66 | 999.8 |
| 20260906064459 | 53 | 211 | 0.0 | 0.0 | 0.00 | 0.02 | 0.01 | 66 | 999.8 |
| 20260906064002 | 53 | 211 | 0.0 | 0.0 | 0.00 | 0.02 | 0.01 | 66 | 999.9 |
| 20260906062959 | 53 | 211 | 0.0 | 0.0 | 0.00 | 0.02 | 0.01 | 66 | 999.9 |
| 20260906062500 | 53 | 211 | 0.0 | 0.0 | 0.00 | 0.02 | 0.01 | 67 | 999.8 |
| 20260906062001 | 53 | 211 | 0.0 | 0.0 | 0.00 | 0.02 | 0.01 | 67 | 999.8 |
| 20260906060501 | 53 | 211 | 0.0 | 2.0 | 0.00 | 0.02 | 0.01 | 68 | 999.8 |
| 20260906060000 | 53 | 211 | 0.0 | 2.0 | 0.00 | 0.02 | 0.01 | 68 | 999.8 |
| 20260906055505 | 54 | 285 | 0.0 | 0.0 | 0.00 | 0.02 | 0.01 | 69 | 1000.0 |
| 20260906054504 | 54 | 285 | 0.0 | 0.0 | 0.00 | 0.02 | 0.01 | 70 | 1000.1 |
| 20260906053501 | 54 | 285 | 0.0 | 0.0 | 0.00 | 0.02 | 0.01 | 72 | 1000.1 |
| 20260906053001 | 54 | 285 | 0.0 | 0.0 | 0.00 | 0.02 | 0.01 | 72 | 1000.0 |
| 20260906052501 | 54 | 285 | 0.0 | 0.0 | 0.00 | 0.02 | 0.01 | 72 | 1000.3 |
| 20260906051003 | 54 | 285 | 0.0 | 0.0 | 0.00 | 0.02 | 0.01 | 73 | 1000.3 |
| 20260906050500 | 54 | 285 | 0.0 | 0.0 | 0.00 | 0.02 | 0.01 | 74 | 1000.5 |
| 20260906045501 | 54 | 285 | 0.0 | 0.0 | 0.00 | 0.02 | 0.01 | 74 | 1000.5 |
| 20260906045002 | 55 | 285 | 0.0 | 0.0 | 0.00 | 0.02 | 0.01 | 74 | 1000.6 |
| 20260906044503 | 55 | 285 | 0.0 | 0.0 | 0.00 | 0.02 | 0.01 | 75 | 1000.6 |
| 20260906044001 | 55 | 285 | 0.0 | 0.0 | 0.00 | 0.02 | 0.01 | 75 | 1000.7 |
| 20260906043508 | 55 | 285 | 0.0 | 0.0 | 0.00 | 0.02 | 0.01 | 75 | 1000.6 |
| 20260906043034 | 55 | 285 | 0.0 | 0.0 | 0.00 | 0.02 | 0.01 | 75 | 1000.7 |
| 20260906042500 | 55 | 285 | 0.0 | 0.0 | 0.00 | 0.02 | 0.01 | 75 | 1000.7 |
| 20260906042001 | 55 | 285 | 0.0 | 0.0 | 0.00 | 0.02 | 0.01 | 76 | 1000.7 |
| 20260906041005 | 56 | 285 | 0.0 | 0.0 | 0.00 | 0.02 | 0.01 | 76 | 1000.7 |
| 20260906040502 | 56 | 285 | 0.0 | 0.0 | 0.00 | 0.02 | 0.01 | 76 | 1000.7 |
| 20260906040000 | 56 | 285 | 0.0 | 0.0 | 0.00 | 0.02 | 0.01 | 76 | 1000.7 |
| 20260906035459 | 56 | 285 | 0.0 | 0.0 | 0.00 | 0.02 | 0.01 | 76 | 1000.6 |
| 20260906035000 | 57 | 285 | 0.0 | 0.0 | 0.00 | 0.02 | 0.01 | 76 | 1000.6 |
| 20260906034503 | 57 | 285 | 0.0 | 0.0 | 0.00 | 0.02 | 0.01 | 76 | 1000.5 |
| 20260906034003 | 57 | 285 | 0.0 | 0.0 | 0.00 | 0.02 | 0.01 | 76 | 1000.4 |
| 20260906033000 | 57 | 285 | 0.0 | 0.0 | 0.00 | 0.02 | 0.01 | 76 | 1000.2 |
| 20260906032500 | 58 | 285 | 0.0 | 0.0 | 0.00 | 0.02 | 0.01 | 76 | 1000.1 |
| 20260906032000 | 58 | 285 | 0.0 | 0.0 | 0.00 | 0.02 | 0.01 | 76 | 1000.1 |
| 20260906031500 | 58 | 285 | 0.0 | 0.0 | 0.00 | 0.02 | 0.01 | 76 | 1000.0 |
| 20260906031003 | 59 | 285 | 0.0 | 0.0 | 0.00 | 0.02 | 0.01 | 76 | 999.9 |
| 20260906030459 | 59 | 285 | 0.0 | 0.0 | 0.00 | 0.02 | 0.01 | 76 | 999.9 |
| 20260906030000 | 59 | 285 | 0.0 | 0.0 | 0.00 | 0.02 | 0.01 | 76 | 999.9 |
| 20260906025459 | 59 | 285 | 0.0 | 0.0 | 0.00 | 0.02 | 0.01 | 76 | 999.9 |
| 20260906025000 | 60 | 285 | 0.0 | 0.0 | 0.00 | 0.02 | 0.01 | 76 | 999.9 |
| 20260906024029 | 60 | 285 | 0.0 | 0.0 | 0.00 | 0.02 | 0.01 | 76 | 999.8 |
| 20260906023459 | 61 | 285 | 0.0 | 0.0 | 0.00 | 0.02 | 0.01 | 76 | 999.8 |
| 20260906022959 | 61 | 285 | 0.0 | 0.0 | 0.00 | 0.02 | 0.01 | 76 | 999.7 |
| 20260906021504 | 62 | 285 | 0.0 | 0.0 | 0.00 | 0.02 | 0.01 | 76 | 999.7 |
| 20260906020002 | 62 | 285 | 0.0 | 0.0 | 0.00 | 0.02 | 0.01 | 76 | 999.9 |
| 20260906015006 | 62 | 285 | 0.0 | 0.0 | 0.00 | 0.02 | 0.01 | 75 | 999.7 |
| 20260906014001 | 62 | 285 | 0.0 | 0.0 | 0.00 | 0.02 | 0.01 | 75 | 999.7 |
| 20260906013459 | 62 | 285 | 0.0 | 0.0 | 0.00 | 0.02 | 0.01 | 75 | 999.7 |
| 20260906013001 | 62 | 285 | 0.0 | 0.0 | 0.00 | 0.02 | 0.01 | 75 | 999.7 |
| 20260906010500 | 61 | 285 | 0.0 | 0.0 | 0.00 | 0.02 | 0.01 | 75 | 999.7 |
| 20260906010003 | 61 | 285 | 0.0 | 0.0 | 0.00 | 0.02 | 0.01 | 76 | 999.7 |
| 20260906005500 | 62 | 285 | 0.0 | 0.0 | 0.00 | 0.02 | 0.01 | 75 | 999.7 |
| 20260906005002 | 62 | 285 | 0.0 | 0.0 | 0.00 | 0.02 | 0.01 | 74 | 999.8 |
| 20260906004500 | 63 | 285 | 0.0 | 0.0 | 0.00 | 0.02 | 0.01 | 75 | 999.8 |
| 20260906004000 | 63 | 285 | 0.0 | 0.0 | 0.00 | 0.02 | 0.01 | 73 | 999.8 |
| 20260906003500 | 63 | 285 | 0.0 | 0.0 | 0.00 | 0.02 | 0.01 | 71 | 999.8 |
| 20260906003001 | 63 | 285 | 0.0 | 0.0 | 0.00 | 0.02 | 0.01 | 71 | 999.8 |
| 20260906001958 | 63 | 285 | 0.0 | 0.0 | 0.00 | 0.02 | 0.01 | 73 | 999.9 |
| 20260906001459 | 66 | 285 | 0.0 | 0.0 | 0.00 | 0.02 | 0.01 | 71 | 1000.0 |
| 20260906000500 | 66 | 285 | 0.0 | 0.0 | 0.00 | 0.02 | 0.01 | 69 | 1000.2 |
| 20260906000003 | 65 | 285 | 0.0 | 0.0 | 0.00 | 0.02 | 0.01 | 72 | 999.9 |
| 20260905234500 | 64 | 285 | 0.0 | 2.0 | 0.00 | 0.02 | 0.01 | 74 | 999.9 |
| 20260905234005 | 64 | 285 | 0.0 | 2.0 | 0.00 | 0.02 | 0.01 | 74 | 999.9 |
| 20260905233501 | 62 | 240 | 0.0 | 0.0 | 0.00 | 0.02 | 0.01 | 76 | 1000.0 |
| 20260905233000 | 62 | 240 | 0.0 | 0.0 | 0.00 | 0.02 | 0.01 | 75 | 1000.1 |
| 20260905232505 | 62 | 241 | 0.0 | 0.0 | 0.00 | 0.02 | 0.01 | 75 | 1000.3 |
| 20260905232002 | 62 | 241 | 0.0 | 0.0 | 0.00 | 0.02 | 0.01 | 76 | 1000.4 |
| 20260905231001 | 60 | 241 | 0.0 | 1.0 | 0.01 | 0.02 | 0.01 | 74 | 1000.5 |
| 20260905230002 | 59 | 241 | 0.0 | 0.0 | 0.01 | 0.02 | 0.01 | 70 | 1000.6 |
| 20260905225503 | 59 | 241 | 0.0 | 0.0 | 0.01 | 0.02 | 0.01 | 67 | 1000.6 |
| 20260905224458 | 60 | 241 | 0.0 | 0.0 | 0.01 | 0.02 | 0.01 | 70 | 1000.6 |
| 20260905224000 | 60 | 241 | 0.0 | 0.0 | 0.01 | 0.02 | 0.01 | 71 | 1000.5 |
| 20260905223001 | 61 | 241 | 0.0 | 0.0 | 0.01 | 0.02 | 0.01 | 75 | 1000.5 |
| 20260905222503 | 61 | 241 | 0.0 | 0.0 | 0.01 | 0.02 | 0.01 | 75 | 1000.6 |
| 20260905222005 | 61 | 241 | 0.0 | 0.0 | 0.01 | 0.02 | 0.01 | 76 | 1000.7 |
| 20260905221504 | 61 | 241 | 0.0 | 0.0 | 0.00 | 0.01 | 0.00 | 76 | 1000.7 |
| 20260905221001 | 63 | 241 | 0.0 | 0.0 | 0.00 | 0.01 | 0.00 | 75 | 1000.7 |
| 20260905220501 | 63 | 241 | 0.0 | 0.0 | 0.00 | 0.01 | 0.00 | 74 | 1000.7 |
| 20260905220000 | 64 | 241 | 0.0 | 0.0 | 0.00 | 0.01 | 0.00 | 73 | 1000.6 |
| 20260905214504 | 64 | 241 | 0.0 | 0.0 | 0.00 | 0.01 | 0.00 | 67 | 1000.5 |
| 20260905213503 | 64 | 241 | 0.0 | 2.0 | 0.00 | 0.01 | 0.00 | 68 | 1000.4 |
| 20260905212959 | 64 | 241 | 0.0 | 0.0 | 0.00 | 0.01 | 0.00 | 66 | 1000.4 |
| 20260905212501 | 65 | 241 | 0.0 | 1.0 | 0.00 | 0.01 | 0.00 | 66 | 1000.4 |
| 20260905212001 | 64 | 241 | 0.0 | 1.0 | 0.00 | 0.01 | 0.00 | 68 | 1000.3 |
| 20260905211500 | 64 | 241 | 0.0 | 1.0 | 0.00 | 0.01 | 0.00 | 69 | 1000.3 |
| 20260905210503 | 65 | 240 | 0.0 | 3.0 | 0.00 | 0.01 | 0.00 | 66 | 1000.3 |
| 20260905210001 | 66 | 251 | 0.0 | 3.0 | 0.00 | 0.01 | 0.00 | 68 | 1000.2 |
| 20260905205003 | 65 | 236 | 2.0 | 8.0 | 0.00 | 0.01 | 0.00 | 71 | 1000.5 |
| 20260905204500 | 65 | 230 | 0.0 | 3.0 | 0.00 | 0.01 | 0.00 | 71 | 1000.4 |
| 20260905204001 | 64 | 255 | 1.0 | 3.0 | 0.00 | 0.01 | 0.00 | 72 | 1000.5 |
| 20260905203500 | 64 | 233 | 3.0 | 3.0 | 0.00 | 0.01 | 0.00 | 73 | 1000.5 |
| 20260905203001 | 63 | 252 | 0.0 | 7.0 | 0.00 | 0.01 | 0.00 | 73 | 1000.4 |
| 20260905202501 | 63 | 271 | 0.0 | 7.0 | 0.00 | 0.01 | 0.00 | 73 | 1000.4 |
| 20260905201500 | 64 | 231 | 0.0 | 3.0 | 0.00 | 0.01 | 0.00 | 73 | 1000.4 |
| 20260905201000 | 64 | 216 | 0.0 | 3.0 | 0.00 | 0.01 | 0.00 | 73 | 1000.4 |
| 20260905200002 | 64 | 254 | 0.0 | 3.0 | 0.00 | 0.01 | 0.00 | 74 | 1000.3 |
| 20260905195501 | 64 | 256 | 0.0 | 5.0 | 0.00 | 0.01 | 0.00 | 73 | 1000.2 |
| 20260905195000 | 64 | 248 | 0.0 | 5.0 | 0.00 | 0.01 | 0.00 | 73 | 1000.3 |
| 20260905192506 | 64 | 96 | 0.0 | 1.0 | 0.00 | 0.01 | 0.00 | 70 | 1000.5 |
| 20260905192000 | 63 | 94 | 0.0 | 1.0 | 0.00 | 0.01 | 0.00 | 68 | 1000.5 |
| 20260905185503 | 62 | 94 | 0.0 | 0.0 | 0.00 | 0.01 | 0.00 | 70 | 1000.7 |
| 20260905185007 | 62 | 94 | 0.0 | 0.0 | 0.00 | 0.01 | 0.00 | 72 | 1000.8 |
| 20260905183959 | 61 | 94 | 0.0 | 0.0 | 0.00 | 0.01 | 0.00 | 73 | 1000.8 |
| 20260905183458 | 61 | 94 | 0.0 | 0.0 | 0.00 | 0.01 | 0.00 | 74 | 1000.9 |
| 20260905183004 | 61 | 94 | 0.0 | 0.0 | 0.00 | 0.01 | 0.00 | 73 | 1000.9 |
| 20260905182459 | 61 | 94 | 0.0 | 0.0 | 0.00 | 0.01 | 0.00 | 73 | 1000.9 |
| 20260905182003 | 61 | 94 | 0.0 | 0.0 | 0.00 | 0.01 | 0.00 | 75 | 1000.9 |
| 20260905181501 | 61 | 94 | 0.0 | 0.0 | 0.00 | 0.01 | 0.00 | 74 | 1001.0 |
| 20260905175500 | 61 | 84 | 0.0 | 0.0 | 0.00 | 0.01 | 0.00 | 76 | 1001.2 |
| 20260905175000 | 60 | 84 | 0.0 | 0.0 | 0.00 | 0.01 | 0.00 | 76 | 1001.2 |
| 20260905174006 | 59 | 84 | 0.0 | 0.0 | 0.00 | 0.01 | 0.00 | 76 | 1001.3 |
| 20260905172959 | 57 | 84 | 0.0 | 0.0 | 0.00 | 0.01 | 0.00 | 74 | 1001.4 |
| 20260905172000 | 57 | 84 | 0.0 | 0.0 | 0.00 | 0.01 | 0.00 | 73 | 1001.4 |
| 20260905171500 | 56 | 84 | 0.0 | 0.0 | 0.00 | 0.01 | 0.00 | 75 | 1001.4 |
| 20260905170459 | 56 | 84 | 0.0 | 0.0 | 0.00 | 0.01 | 0.00 | 71 | 1001.5 |
| 20260905170014 | 55 | 84 | 0.0 | 0.0 | 0.00 | 0.01 | 0.00 | 70 | 1001.5 |
| 20260905165007 | 54 | 84 | 0.0 | 0.0 | 0.00 | 0.01 | 0.00 | 66 | 1001.5 |
| 20260905163505 | 51 | 84 | 0.0 | 0.0 | 0.00 | 0.01 | 0.00 | 59 | 1001.5 |
| 20260905162958 | 51 | 84 | 0.0 | 0.0 | 0.00 | 0.01 | 0.00 | 57 | 1001.5 |
| 20260905162000 | 50 | 84 | 0.0 | 0.0 | 0.00 | 0.01 | 0.00 | 55 | 1001.5 |
| 20260905161459 | 49 | 84 | 0.0 | 0.0 | 0.00 | 0.01 | 0.00 | 55 | 1001.5 |
| 20260905160511 | 49 | 84 | 0.0 | 0.0 | 0.00 | 0.01 | 0.00 | 55 | 1001.6 |
| 20260905160001 | 48 | 84 | 0.0 | 0.0 | 0.00 | 0.01 | 0.00 | 55 | 1001.6 |
| 20260905155505 | 47 | 84 | 0.0 | 0.0 | 0.00 | 0.01 | 0.00 | 57 | 1001.6 |
| 20260905153506 | 47 | 84 | 0.0 | 0.0 | 0.00 | 0.01 | 0.00 | 58 | 1001.7 |
| 20260905152003 | 46 | 84 | 0.0 | 0.0 | 0.00 | 0.01 | 0.00 | 59 | 1001.8 |
| 20260905151500 | 46 | 84 | 0.0 | 0.0 | 0.00 | 0.01 | 0.00 | 59 | 1001.8 |
| 20260905150000 | 46 | 84 | 0.0 | 0.0 | 0.00 | 0.01 | 0.00 | 60 | 1001.8 |
| 20260905145459 | 46 | 84 | 0.0 | 0.0 | 0.00 | 0.01 | 0.00 | 60 | 1001.8 |